User: anonymous   Login
Location: Forst
(46.9333°N, 15.4333°E)
Time: 16:35:26
(UTC+00:00)
Language:

RESURS 01 DEB - Orbit

View from above orbital plane
View from above orbital plane
View from above satellite
View from above satellite

Ground track
Ground track

The orbit data is extracted from the following two-line orbital elements,

1 46884U 94074BQ  21266.40800104  .00007621  00000-0  94552-3 0  9992
2 46884  97.9109 315.4259 0006509 111.3266 248.8643 14.82900254 47995
Epoch (UTC): 23 September 2021 09:47:31
Eccentricity: 0.0006509
inclination: 97.9109°
perigee height: 615 km
apogee height: 625 km
right ascension of ascending node: 315.4259°
argument of perigee: 111.3266°
revolutions per day: 14.82900254
mean anomaly at epoch: 248.8643°
orbit number at epoch: 4799

The dashed part of the orbit path shows where the satellite is in the earth's shadow,  

DLR